Location: *
(58.4167°N, 22.5000°E)
Time: 07:42:20
(UTC+00:00)

Cosmos 2227 Rocket - Pass Details

Date: 22 September 2019
Orbit: 837 x 847 km, 71.0° (Epoch: 15 October)

Event Time Altitude Azimuth Distance (km) Brightness Sun altitude
Rises 18:05:32 0° 193° (SSW) 3,389 5.2 -12.9°
Reaches altitude 10° 18:08:01 10° 188° (S) 2,460 4.5 -13.2°
Maximum altitude 18:13:25 49° 116° (ESE) 1,084 2.4 -13.9°
Drops below altitude 10° 18:18:53 10° 43° (NE) 2,481 4.5 -14.5°
Sets 18:21:24 0° 38° (NE) 3,421 5.2 -14.8°
